M I D A S
Marine Information and Data Acquisition System
Tripno 2103 of the Zeeleeuw from 2011-05-19 07:49:11 to 2011-05-19 13:01:09
Back to CruiseResearch ActivitiesStationsMapUnderway DataData graphs

EquipmentUnitsComments
TimeDGPSUTC
LatitudeDGPSDM.mWGS84
LongitudeDGPSDM.mWGS84
SpeedMeteo Stationm/sRelative wind speed
DirectionMeteo StationdegRelative wind direction
TemperatureMeteo Stationdeg CelciusAir temperature
PressureMeteo StationPaAtmospheric pressure
HumidityMeteo Station%Relative humidity
Missing or incorrect values are displayed as -999
Metereological data collected by the RV Zeeleeuw from 2011-05-19 07:50:55 to 2011-05-19 13:13:59
                                                                                    Next 1000 lines
Time Latitude Longitude Speed Direction Temperature Pressure Humidity
2011-05-19 07:51:05 51°13.616 2°56.067 -999 59 13.3 101770 39
2011-05-19 07:51:10 51°13.616 2°56.064 -999 268 13.4 101770 39
2011-05-19 07:51:15 51°13.617 2°56.06 -999 310 13.4 101770 39
2011-05-19 07:51:20 51°13.618 2°56.055 -999 27 13.3 101770 39
2011-05-19 07:51:24 51°13.619 2°56.051 -999 54 13.3 101770 39
2011-05-19 07:51:30 51°13.621 2°56.044 -999 269 13.3 101770 39
2011-05-19 07:51:35 51°13.623 2°56.037 -999 301 13.3 101770 39
2011-05-19 07:51:40 51°13.625 2°56.03 -999 269 13.3 101770 39
2011-05-19 07:51:45 51°13.627 2°56.022 -999 306 13.3 101770 39
2011-05-19 07:51:50 51°13.629 2°56.015 -999 270 13.3 101770 39
2011-05-19 07:51:55 51°13.631 2°56.007 -999 54 13.3 101770 39
2011-05-19 07:52:00 51°13.633 2°55.999 -999 269 13.3 101770 39
2011-05-19 07:52:05 51°13.635 2°55.992 -999 303 13.3 101770 39
2011-05-19 07:52:10 51°13.637 2°55.984 -999 26 13.3 101780 40
2011-05-19 07:52:15 51°13.639 2°55.977 -999 306 13.3 101780 40
2011-05-19 07:52:20 51°13.641 2°55.969 -999 28 13.3 101770 39
2011-05-19 07:52:25 51°13.642 2°55.962 -999 54 13.3 101770 39
2011-05-19 07:52:30 51°13.644 2°55.955 -999 269 13.3 101770 39
2011-05-19 07:52:35 51°13.646 2°55.948 -999 55 13.3 101770 39
2011-05-19 07:52:40 51°13.648 2°55.941 -999 24 13.3 101780 38
2011-05-19 07:52:45 51°13.65 2°55.934 -999 56 13.3 101780 38
2011-05-19 07:52:50 51°13.652 2°55.927 -999 24 13.3 101780 39
2011-05-19 07:52:55 51°13.654 2°55.919 -999 54 13.3 101780 39
2011-05-19 07:53:00 51°13.656 2°55.912 -999 268 13.3 101780 38
2011-05-19 07:53:05 51°13.659 2°55.905 -999 306 13.3 101780 38
2011-05-19 07:53:10 51°13.661 2°55.898 -999 26 13.3 101770 39
2011-05-19 07:53:15 51°13.663 2°55.891 -999 54 13.3 101770 39
2011-05-19 07:53:20 51°13.665 2°55.884 -999 24 13.3 101770 39
2011-05-19 07:53:25 51°13.667 2°55.877 -999 54 13.3 101770 39
2011-05-19 07:53:30 51°13.669 2°55.871 -999 25 13.2 101770 39
2011-05-19 07:53:36 51°13.672 2°55.863 -999 304 13.2 101770 39
2011-05-19 07:53:40 51°13.673 2°55.858 -999 25 13.3 101770 39
2011-05-19 07:53:45 51°13.675 2°55.852 -999 54 13.3 101770 39
2011-05-19 07:53:50 51°13.677 2°55.846 -999 23 13.3 101770 39
2011-05-19 07:53:55 51°13.679 2°55.84 -999 51 13.3 101770 39
2011-05-19 07:54:00 51°13.681 2°55.834 -999 25 13.2 101770 39
2011-05-19 07:54:05 51°13.683 2°55.829 -999 306 13.2 101770 39
2011-05-19 07:54:10 51°13.684 2°55.823 -999 270 13.2 101770 37
2011-05-19 07:54:15 51°13.686 2°55.818 -999 54 13.2 101770 37
2011-05-19 07:54:20 51°13.688 2°55.812 -999 24 13.2 101770 38
2011-05-19 07:54:25 51°13.691 2°55.806 -999 54 13.2 101770 38
2011-05-19 07:54:30 51°13.693 2°55.801 -999 24 13.2 101770 39
2011-05-19 07:54:36 51°13.696 2°55.794 -999 54 13.2 101770 39
2011-05-19 07:54:41 51°13.698 2°55.788 -999 24 13.2 101770 39
2011-05-19 07:54:45 51°13.701 2°55.783 -999 54 13.2 101770 39
2011-05-19 07:54:50 51°13.704 2°55.777 -999 23 13.2 101770 39
2011-05-19 07:54:55 51°13.707 2°55.77 -999 54 13.2 101770 39
2011-05-19 07:55:01 51°13.711 2°55.763 -999 24 13.2 101770 38
2011-05-19 07:55:05 51°13.714 2°55.758 -999 54 13.2 101770 38
2011-05-19 07:55:10 51°13.718 2°55.751 -999 23 13.2 101770 39
2011-05-19 07:55:15 51°13.722 2°55.745 -999 54 13.2 101770 39
2011-05-19 07:55:20 51°13.726 2°55.738 -999 24 13.2 101770 39
2011-05-19 07:55:25 51°13.731 2°55.732 -999 54 13.2 101770 39
2011-05-19 07:55:30 51°13.735 2°55.725 -999 24 13.2 101780 39
2011-05-19 07:55:35 51°13.74 2°55.719 -999 54 13.2 101780 39
2011-05-19 07:55:40 51°13.745 2°55.712 -999 24 13.2 101770 38
2011-05-19 07:55:45 51°13.75 2°55.705 -999 54 13.2 101770 38
2011-05-19 07:55:50 51°13.756 2°55.699 -999 24 13.1 101770 38
2011-05-19 07:55:55 51°13.761 2°55.692 -999 54 13.1 101770 38
2011-05-19 07:56:00 51°13.767 2°55.686 -999 23 13.1 101780 38
2011-05-19 07:56:05 51°13.773 2°55.68 -999 54 13.1 101780 38
2011-05-19 07:56:10 51°13.779 2°55.674 0.9 23 13.2 101780 39
2011-05-19 07:56:15 51°13.785 2°55.668 1.9 59 13.2 101780 39
2011-05-19 07:56:20 51°13.791 2°55.662 0.3 27 13.2 101770 39
2011-05-19 07:56:25 51°13.797 2°55.657 0.3 52 13.2 101770 39
2011-05-19 07:56:30 51°13.803 2°55.651 0.1 23 13.1 101770 38
2011-05-19 07:56:35 51°13.81 2°55.647 0.1 59 13.1 101770 38
2011-05-19 07:56:40 51°13.817 2°55.642 0.5 27 13.2 101780 38
2011-05-19 07:56:46 51°13.825 2°55.637 0.2 54 13.2 101780 38
2011-05-19 07:56:49 51°13.829 2°55.635 0.9 29 13.1 101770 37
2011-05-19 07:56:56 51°13.839 2°55.63 0.3 52 13.1 101770 37
2011-05-19 07:57:01 51°13.846 2°55.627 0.1 22 13.2 101780 39
2011-05-19 07:57:06 51°13.853 2°55.625 0.1 54 13.2 101780 39
2011-05-19 07:57:10 51°13.859 2°55.623 -999 23 13.2 101780 39
2011-05-19 07:57:15 51°13.866 2°55.622 -999 54 13.2 101780 39
2011-05-19 07:57:21 51°13.874 2°55.62 -999 23 13.2 101780 39
2011-05-19 07:57:25 51°13.88 2°55.619 -999 54 13.2 101780 39
2011-05-19 07:57:30 51°13.887 2°55.619 -999 23 13.2 101780 39
2011-05-19 07:57:35 51°13.893 2°55.619 -999 54 13.2 101780 39
2011-05-19 07:57:40 51°13.899 2°55.619 -999 24 13.3 101780 40
2011-05-19 07:57:45 51°13.906 2°55.62 -999 54 13.3 101780 40
2011-05-19 07:57:50 51°13.912 2°55.621 -999 24 13.4 101770 40
2011-05-19 07:57:55 51°13.918 2°55.622 -999 54 13.4 101770 40
2011-05-19 07:58:00 51°13.923 2°55.623 -999 23 13.4 101770 40
2011-05-19 07:58:05 51°13.928 2°55.625 -999 54 13.4 101770 40
2011-05-19 07:58:10 51°13.933 2°55.627 -999 24 13.4 101770 39
2011-05-19 07:58:15 51°13.938 2°55.629 -999 54 13.4 101770 39
2011-05-19 07:58:20 51°13.942 2°55.631 -999 23 13.5 101770 39
2011-05-19 07:58:25 51°13.946 2°55.632 -999 59 13.5 101770 39
2011-05-19 07:58:30 51°13.949 2°55.634 -999 26 13.5 101780 39
2011-05-19 07:58:35 51°13.953 2°55.636 -999 54 13.5 101780 39
2011-05-19 07:58:39 51°13.955 2°55.638 -999 24 13.6 101780 39
2011-05-19 07:58:44 51°13.957 2°55.639 0.1 54 13.6 101780 39
2011-05-19 07:58:50 51°13.959 2°55.64 0.1 23 13.6 101770 39
2011-05-19 07:58:54 51°13.96 2°55.641 -999 54 13.6 101770 39
2011-05-19 07:58:59 51°13.96 2°55.641 -999 23 13.6 101780 39
2011-05-19 07:59:04 51°13.961 2°55.64 -999 42 13.6 101780 39
2011-05-19 07:59:09 51°13.96 2°55.638 -999 40 13.6 101780 39
2011-05-19 07:59:14 51°13.96 2°55.636 -999 34 13.6 101780 39
2011-05-19 07:59:20 51°13.959 2°55.631 -999 33 13.6 101780 38
2011-05-19 07:59:25 51°13.958 2°55.625 -999 24 13.6 101780 38
2011-05-19 07:59:30 51°13.958 2°55.619 -999 20 13.5 101770 37
2011-05-19 07:59:35 51°13.959 2°55.612 -999 13 13.5 101770 37
2011-05-19 07:59:39 51°13.959 2°55.606 -999 13 13.5 101770 38
2011-05-19 07:59:45 51°13.961 2°55.597 -999 8 13.5 101770 38
2011-05-19 07:59:49 51°13.963 2°55.591 -999 6 13.5 101770 38
2011-05-19 07:59:55 51°13.967 2°55.582 -999 358 13.5 101770 38
2011-05-19 07:59:59 51°13.97 2°55.577 -999 356 13.4 101770 38
2011-05-19 08:00:04 51°13.974 2°55.57 -999 353 13.4 101770 38
2011-05-19 08:00:09 51°13.979 2°55.563 -999 353 13.4 101770 38
2011-05-19 08:00:14 51°13.985 2°55.557 -999 342 13.4 101770 38
2011-05-19 08:00:19 51°13.991 2°55.551 -999 343 13.4 101770 38
2011-05-19 08:00:23 51°13.996 2°55.545 0.1 339 13.4 101770 38
2011-05-19 08:00:28 51°14.002 2°55.539 0.1 340 13.3 101770 38
2011-05-19 08:00:33 51°14.009 2°55.533 0.1 345 13.3 101770 38
2011-05-19 08:00:38 51°14.016 2°55.526 0.1 346 13.3 101770 38
2011-05-19 08:00:43 51°14.023 2°55.52 -999 345 13.3 101770 38
2011-05-19 08:00:48 51°14.03 2°55.513 -999 338 13.3 101780 38
2011-05-19 08:00:53 51°14.037 2°55.506 -999 345 13.3 101780 38
2011-05-19 08:00:59 51°14.047 2°55.497 -999 346 13.3 101770 38
2011-05-19 08:01:04 51°14.055 2°55.49 -999 345 13.3 101770 38
2011-05-19 08:01:08 51°14.062 2°55.483 -999 343 13.3 101780 38
2011-05-19 08:01:14 51°14.073 2°55.473 -999 340 13.3 101780 38
2011-05-19 08:01:19 51°14.082 2°55.464 -999 342 13.3 101770 38
2011-05-19 08:01:24 51°14.092 2°55.456 -999 344 13.3 101770 38
2011-05-19 08:01:28 51°14.1 2°55.449 -999 338 13.2 101770 38
2011-05-19 08:01:33 51°14.11 2°55.44 -999 340 13.2 101770 38
2011-05-19 08:01:38 51°14.12 2°55.431 -999 342 13.2 101770 39
2011-05-19 08:01:44 51°14.132 2°55.419 -999 343 13.2 101770 39
2011-05-19 08:01:48 51°14.141 2°55.412 -999 341 13.2 101770 39
2011-05-19 08:01:53 51°14.151 2°55.402 -999 343 13.2 101770 39
2011-05-19 08:01:58 51°14.162 2°55.392 4.2 339 13.2 101770 39
2011-05-19 08:02:03 51°14.173 2°55.381 4 282 13.2 101770 39
2011-05-19 08:02:08 51°14.183 2°55.371 4.3 340 13.2 101770 37
2011-05-19 08:02:12 51°14.192 2°55.362 4.8 341 13.2 101770 37
2011-05-19 08:02:17 51°14.203 2°55.352 5.1 341 13.2 101770 39
2011-05-19 08:02:23 51°14.217 2°55.339 4.2 340 13.2 101770 39
2011-05-19 08:02:28 51°14.228 2°55.328 3.7 341 13.2 101780 40
2011-05-19 08:02:32 51°14.237 2°55.32 4.3 341 13.2 101780 40
2011-05-19 08:02:37 51°14.248 2°55.308 4.3 339 13.2 101770 37
2011-05-19 08:02:43 51°14.262 2°55.295 4.5 340 13.2 101770 37
2011-05-19 08:02:48 51°14.274 2°55.283 5.2 342 13.2 101770 38
2011-05-19 08:02:52 51°14.284 2°55.273 5.6 341 13.2 101770 38
2011-05-19 08:02:57 51°14.296 2°55.261 5.4 342 13.2 101770 39
2011-05-19 08:03:02 51°14.308 2°55.249 5.1 344 13.2 101770 39
2011-05-19 08:03:07 51°14.32 2°55.237 4.9 340 13.2 101770 40
2011-05-19 08:03:13 51°14.335 2°55.221 5.5 342 13.2 101770 40
2011-05-19 08:03:17 51°14.345 2°55.211 5.6 344 13.1 101770 39
2011-05-19 08:03:22 51°14.358 2°55.198 6.3 342 13.1 101770 39
2011-05-19 08:03:27 51°14.371 2°55.185 5.9 343 13.1 101770 39
2011-05-19 08:03:33 51°14.386 2°55.169 6 344 13.1 101770 39
2011-05-19 08:03:38 51°14.399 2°55.156 5.6 340 13.1 101770 38
2011-05-19 08:03:43 51°14.411 2°55.142 5.2 345 13.1 101770 38
2011-05-19 08:03:49 51°14.427 2°55.125 5.9 341 13.1 101770 38
2011-05-19 08:03:53 51°14.437 2°55.114 6.4 341 13.1 101770 38
2011-05-19 08:03:59 51°14.452 2°55.096 5.9 342 13.1 101770 40
2011-05-19 08:04:04 51°14.465 2°55.082 5.8 343 13.1 101770 40
2011-05-19 08:04:09 51°14.478 2°55.067 5.9 343 13.1 101770 38
2011-05-19 08:04:14 51°14.491 2°55.052 5.9 342 13.1 101770 38
2011-05-19 08:04:20 51°14.506 2°55.032 5.3 340 13.1 101770 39
2011-05-19 08:04:25 51°14.519 2°55.016 5.9 341 13.1 101770 39
2011-05-19 08:04:29 51°14.529 2°55.002 6.4 340 13.1 101770 39
2011-05-19 08:04:34 51°14.542 2°54.984 6.4 340 13.1 101770 39
2011-05-19 08:04:39 51°14.555 2°54.966 5.7 340 13.1 101780 39
2011-05-19 08:04:44 51°14.568 2°54.947 6.6 339 13.1 101780 39
2011-05-19 08:04:50 51°14.585 2°54.925 6.7 342 13 101770 38
2011-05-19 08:04:54 51°14.595 2°54.909 6.2 340 13 101770 38
2011-05-19 08:04:59 51°14.608 2°54.89 6 340 13 101770 40
2011-05-19 08:05:04 51°14.62 2°54.869 6 340 13 101770 40
2011-05-19 08:05:09 51°14.632 2°54.846 5.2 342 13 101770 39
2011-05-19 08:05:14 51°14.642 2°54.822 5.6 343 13 101770 39
2011-05-19 08:05:18 51°14.649 2°54.802 7.1 344 13 101770 38
2011-05-19 08:05:23 51°14.658 2°54.776 6.5 343 13 101770 38
2011-05-19 08:05:28 51°14.665 2°54.748 6.6 344 13 101770 39
2011-05-19 08:05:33 51°14.67 2°54.72 6.5 342 13 101770 39
2011-05-19 08:05:38 51°14.675 2°54.691 7.1 344 13 101770 38
2011-05-19 08:05:42 51°14.677 2°54.667 6.1 344 13 101770 38
2011-05-19 08:05:47 51°14.679 2°54.637 5.7 347 13 101770 40
2011-05-19 08:05:53 51°14.679 2°54.601 5.8 347 13 101770 40
2011-05-19 08:05:58 51°14.677 2°54.571 5 348 13 101770 39
2011-05-19 08:06:02 51°14.674 2°54.548 4.5 348 13 101770 39
2011-05-19 08:06:07 51°14.668 2°54.519 4.6 348 13 101780 40
2011-05-19 08:06:12 51°14.661 2°54.491 4.1 347 13 101780 40
2011-05-19 08:06:17 51°14.653 2°54.464 4.5 345 13 101780 40
2011-05-19 08:06:22 51°14.644 2°54.436 3.9 344 13 101780 40
2011-05-19 08:06:26 51°14.636 2°54.415 4.5 345 13 101780 38
2011-05-19 08:06:31 51°14.626 2°54.389 4.2 344 13 101780 38
2011-05-19 08:06:36 51°14.615 2°54.364 4.2 343 13 101780 39
2011-05-19 08:06:41 51°14.603 2°54.339 4.2 342 13 101780 39
2011-05-19 08:06:47 51°14.589 2°54.308 4.4 340 13 101780 40
2011-05-19 08:06:52 51°14.577 2°54.283 4.1 340 13 101780 40
2011-05-19 08:06:56 51°14.568 2°54.263 4.1 343 12.9 101780 40
2011-05-19 08:07:02 51°14.554 2°54.233 4 339 12.9 101780 40
2011-05-19 08:07:07 51°14.541 2°54.209 4.6 341 12.9 101780 40
2011-05-19 08:07:12 51°14.528 2°54.184 4 339 12.9 101780 40
2011-05-19 08:07:16 51°14.518 2°54.165 3.7 340 12.9 101790 39
2011-05-19 08:07:22 51°14.503 2°54.136 3.2 338 12.9 101790 39
2011-05-19 08:07:27 51°14.49 2°54.112 3.6 341 12.9 101790 38
2011-05-19 08:07:32 51°14.477 2°54.088 3.5 339 12.9 101790 38
2011-05-19 08:07:37 51°14.464 2°54.063 3.6 338 12.9 101790 38
2011-05-19 08:07:42 51°14.453 2°54.037 4.3 341 12.9 101790 38
2011-05-19 08:07:47 51°14.441 2°54.011 4.2 343 12.9 101790 38
2011-05-19 08:07:51 51°14.432 2°53.99 5 341 12.9 101790 38
2011-05-19 08:07:57 51°14.42 2°53.957 5.1 342 12.9 101790 36
2011-05-19 08:08:02 51°14.41 2°53.93 5.6 342 12.9 101790 36
2011-05-19 08:08:07 51°14.4 2°53.902 4.8 342 12.9 101790 40
2011-05-19 08:08:11 51°14.393 2°53.88 5.6 343 12.9 101790 40
2011-05-19 08:08:17 51°14.382 2°53.846 4.9 343 12.9 101790 40
2011-05-19 08:08:22 51°14.373 2°53.817 5.2 340 12.9 101790 40
2011-05-19 08:08:27 51°14.363 2°53.789 4.9 343 12.9 101790 38
2011-05-19 08:08:31 51°14.356 2°53.766 5.1 343 12.9 101790 38
2011-05-19 08:08:37 51°14.345 2°53.732 4.5 341 12.9 101790 38
2011-05-19 08:08:42 51°14.336 2°53.703 5.2 342 12.9 101790 38
2011-05-19 08:08:47 51°14.327 2°53.675 4.4 344 12.9 101790 40
2011-05-19 08:08:52 51°14.317 2°53.647 4.4 340 12.9 101790 40
2011-05-19 08:08:56 51°14.31 2°53.624 4.3 343 12.9 101790 40
2011-05-19 08:09:02 51°14.298 2°53.591 5.3 344 12.9 101790 40
2011-05-19 08:09:07 51°14.287 2°53.564 5 343 12.9 101790 38
2011-05-19 08:09:12 51°14.276 2°53.537 4.3 343 12.9 101790 38
2011-05-19 08:09:16 51°14.266 2°53.516 4.2 341 12.9 101790 38
2011-05-19 08:09:21 51°14.254 2°53.492 4 341 12.9 101790 38
2011-05-19 08:09:27 51°14.238 2°53.463 3.7 342 12.9 101790 38
2011-05-19 08:09:32 51°14.224 2°53.439 3.8 341 12.9 101790 38
2011-05-19 08:09:36 51°14.213 2°53.421 3.4 343 12.9 101790 39
2011-05-19 08:09:41 51°14.199 2°53.397 4 341 12.9 101790 39
2011-05-19 08:09:47 51°14.182 2°53.369 3.4 340 12.9 101790 38
2011-05-19 08:09:52 51°14.168 2°53.346 4 342 12.9 101790 38
2011-05-19 08:09:56 51°14.157 2°53.327 3.4 342 12.8 101790 38
2011-05-19 08:10:01 51°14.143 2°53.304 3.8 340 12.8 101790 38
2011-05-19 08:10:07 51°14.126 2°53.275 3.5 339 12.8 101790 37
2011-05-19 08:10:12 51°14.113 2°53.252 2.9 341 12.8 101790 37
2011-05-19 08:10:16 51°14.102 2°53.232 3.9 338 12.8 101790 39
2011-05-19 08:10:21 51°14.088 2°53.208 3.7 341 12.8 101790 39
2011-05-19 08:10:26 51°14.075 2°53.183 4.2 340 12.8 101790 39
2011-05-19 08:10:32 51°14.06 2°53.153 3.9 340 12.8 101790 39
2011-05-19 08:10:36 51°14.05 2°53.132 4.3 337 12.8 101790 36
2011-05-19 08:10:41 51°14.037 2°53.106 4 342 12.8 101790 36
2011-05-19 08:10:46 51°14.026 2°53.08 4.5 337 12.9 101790 40
2011-05-19 08:10:52 51°14.012 2°53.048 4.9 341 12.9 101790 40
2011-05-19 08:10:56 51°14.002 2°53.027 4.1 343 12.9 101790 39
2011-05-19 08:11:01 51°13.99 2°53.001 4.2 343 12.9 101790 39
2011-05-19 08:11:07 51°13.976 2°52.97 4.5 345 12.9 101790 38
2011-05-19 08:11:12 51°13.964 2°52.944 4.4 343 12.9 101790 38
2011-05-19 08:11:17 51°13.951 2°52.918 4.5 343 12.9 101790 39
2011-05-19 08:11:22 51°13.939 2°52.892 4.1 343 12.9 101790 39
2011-05-19 08:11:27 51°13.926 2°52.866 4.3 343 12.9 101790 40
2011-05-19 08:11:32 51°13.914 2°52.84 3.7 342 12.9 101790 40
2011-05-19 08:11:37 51°13.902 2°52.814 4.3 342 12.9 101790 39
2011-05-19 08:11:41 51°13.893 2°52.793 4.3 340 12.9 101790 39
2011-05-19 08:11:47 51°13.879 2°52.76 4.2 340 12.8 101790 39
2011-05-19 08:11:52 51°13.868 2°52.733 4.4 342 12.8 101790 39
2011-05-19 08:11:57 51°13.857 2°52.706 4 340 12.8 101790 39
2011-05-19 08:12:01 51°13.848 2°52.685 4.6 340 12.8 101790 39
2011-05-19 08:12:07 51°13.834 2°52.652 4 340 12.8 101790 39
2011-05-19 08:12:12 51°13.823 2°52.625 4.7 343 12.8 101790 39
2011-05-19 08:12:17 51°13.812 2°52.598 5.3 343 12.8 101790 39
2011-05-19 08:12:21 51°13.803 2°52.576 4.9 344 12.8 101790 39
2011-05-19 08:12:25 51°13.794 2°52.555 4.8 344 12.8 101790 40
2011-05-19 08:12:32 51°13.778 2°52.517 4.3 344 12.8 101790 40
2011-05-19 08:12:37 51°13.766 2°52.49 4.7 344 12.9 101790 40
2011-05-19 08:12:41 51°13.757 2°52.468 5.1 343 12.9 101790 40
2011-05-19 08:12:46 51°13.746 2°52.441 4.9 343 12.9 101790 37
2011-05-19 08:12:52 51°13.732 2°52.409 4.5 345 12.9 101790 37
2011-05-19 08:12:57 51°13.721 2°52.382 4.2 343 12.9 101790 38
2011-05-19 08:13:01 51°13.712 2°52.36 4.4 344 12.9 101790 38
2011-05-19 08:13:07 51°13.698 2°52.327 4.4 344 12.9 101790 38
2011-05-19 08:13:12 51°13.687 2°52.3 4.2 343 12.9 101790 38
2011-05-19 08:13:17 51°13.676 2°52.272 4.7 344 12.8 101790 37
2011-05-19 08:13:21 51°13.667 2°52.251 5 345 12.8 101790 37
2011-05-19 08:13:27 51°13.654 2°52.218 5.1 345 12.8 101790 38
2011-05-19 08:13:32 51°13.642 2°52.191 5.4 343 12.8 101790 38
2011-05-19 08:13:37 51°13.63 2°52.165 5 343 12.8 101790 39
2011-05-19 08:13:41 51°13.62 2°52.145 5.2 343 12.8 101790 39
2011-05-19 08:13:46 51°13.608 2°52.119 5.1 342 12.9 101790 39
2011-05-19 08:13:52 51°13.593 2°52.088 4.8 344 12.9 101790 39
2011-05-19 08:13:57 51°13.58 2°52.062 4.4 341 12.9 101790 38
2011-05-19 08:14:01 51°13.57 2°52.042 4.6 341 12.9 101790 38
2011-05-19 08:14:06 51°13.557 2°52.016 4.7 341 12.9 101790 39
2011-05-19 08:14:12 51°13.543 2°51.985 4.6 340 12.9 101790 39
2011-05-19 08:14:17 51°13.53 2°51.959 5.1 340 12.9 101790 38
2011-05-19 08:14:21 51°13.521 2°51.938 5.3 340 12.9 101790 38
2011-05-19 08:14:27 51°13.507 2°51.907 5.1 342 12.9 101790 39
2011-05-19 08:14:32 51°13.495 2°51.88 5.4 342 12.9 101790 39
2011-05-19 08:14:37 51°13.484 2°51.853 5.1 339 12.9 101790 38
2011-05-19 08:14:41 51°13.475 2°51.831 4.9 340 12.9 101790 38
2011-05-19 08:14:47 51°13.462 2°51.798 5 340 12.9 101790 39
2011-05-19 08:14:51 51°13.454 2°51.776 5.5 343 12.9 101790 39
2011-05-19 08:14:57 51°13.442 2°51.742 5.3 342 12.9 101790 38
2011-05-19 08:15:01 51°13.434 2°51.719 5.1 283 12.9 101790 38
2011-05-19 08:15:07 51°13.422 2°51.686 5.5 343 12.9 101790 38
2011-05-19 08:15:12 51°13.413 2°51.657 4.9 341 12.9 101790 38
2011-05-19 08:15:17 51°13.403 2°51.629 4.5 341 12.9 101790 38
2011-05-19 08:15:22 51°13.393 2°51.601 4.6 342 12.9 101790 38
2011-05-19 08:15:26 51°13.385 2°51.578 5.3 344 12.9 101790 37
2011-05-19 08:15:32 51°13.372 2°51.545 5.6 342 12.9 101790 37
2011-05-19 08:15:37 51°13.361 2°51.518 5.4 345 12.9 101790 38
2011-05-19 08:15:42 51°13.35 2°51.491 5.1 346 12.9 101790 38
2011-05-19 08:15:46 51°13.341 2°51.469 4.9 344 12.9 101790 39
2011-05-19 08:15:51 51°13.329 2°51.443 4.4 343 12.9 101790 39
2011-05-19 08:15:56 51°13.317 2°51.416 4.7 342 12.9 101790 38
2011-05-19 08:16:02 51°13.303 2°51.385 4.4 343 12.9 101790 38
2011-05-19 08:16:06 51°13.293 2°51.364 4.7 342 12.9 101790 40
2011-05-19 08:16:11 51°13.281 2°51.338 4.6 342 12.9 101790 40
2011-05-19 08:16:16 51°13.269 2°51.311 5.4 342 12.9 101790 38
2011-05-19 08:16:21 51°13.258 2°51.285 4.8 344 12.9 101790 38
2011-05-19 08:16:26 51°13.246 2°51.258 4.8 344 12.9 101790 38
2011-05-19 08:16:31 51°13.235 2°51.231 4.7 344 12.9 101790 38
2011-05-19 08:16:37 51°13.221 2°51.198 5.1 344 12.9 101790 40
2011-05-19 08:16:42 51°13.21 2°51.171 5 344 12.9 101790 40
2011-05-19 08:16:46 51°13.202 2°51.148 5.6 345 12.9 101790 40
2011-05-19 08:16:50 51°13.194 2°51.125 5.2 343 12.9 101790 40
2011-05-19 08:16:56 51°13.182 2°51.091 5 344 12.9 101790 38
2011-05-19 08:17:01 51°13.172 2°51.062 5.3 283 12.9 101790 38
2011-05-19 08:17:06 51°13.162 2°51.034 5.4 343 12.9 101790 40
2011-05-19 08:17:11 51°13.152 2°51.005 5.6 340 12.9 101790 40
2011-05-19 08:17:16 51°13.143 2°50.976 5.3 341 12.9 101790 39
2011-05-19 08:17:22 51°13.131 2°50.941 5 340 12.9 101790 39
2011-05-19 08:17:27 51°13.122 2°50.912 5.3 341 12.9 101790 38
2011-05-19 08:17:32 51°13.112 2°50.883 5.7 343 12.9 101790 38
2011-05-19 08:17:37 51°13.103 2°50.853 5.7 344 12.9 101790 38
2011-05-19 08:17:42 51°13.093 2°50.825 5 343 12.9 101790 38
2011-05-19 08:17:47 51°13.082 2°50.797 5.3 343 12.9 101790 38
2011-05-19 08:17:51 51°13.073 2°50.774 5.3 343 12.9 101790 38
2011-05-19 08:17:55 51°13.064 2°50.752 5 342 12.9 101790 39
2011-05-19 08:18:02 51°13.048 2°50.714 4.7 342 12.9 101790 39
2011-05-19 08:18:07 51°13.036 2°50.687 4.5 342 12.9 101790 37
2011-05-19 08:18:11 51°13.027 2°50.666 4.2 341 12.9 101790 37
2011-05-19 08:18:16 51°13.015 2°50.639 4.5 342 12.9 101790 40
2011-05-19 08:18:22 51°13.001 2°50.606 5.1 339 12.9 101790 40
2011-05-19 08:18:27 51°12.99 2°50.577 4.6 343 12.9 101790 40
2011-05-19 08:18:31 51°12.982 2°50.555 5.3 342 12.9 101790 40
2011-05-19 08:18:36 51°12.972 2°50.526 5.5 341 12.9 101790 37
2011-05-19 08:18:41 51°12.962 2°50.497 5 342 12.9 101790 37
2011-05-19 08:18:47 51°12.951 2°50.462 5.2 341 12.9 101790 39
2011-05-19 08:18:51 51°12.944 2°50.438 5.6 344 12.9 101790 39
2011-05-19 08:18:55 51°12.937 2°50.414 5 342 12.9 101790 38
2011-05-19 08:19:01 51°12.927 2°50.378 5.5 279 12.9 101790 38
2011-05-19 08:19:06 51°12.918 2°50.348 5.9 343 12.9 101790 39
2011-05-19 08:19:11 51°12.91 2°50.318 5.3 342 12.9 101790 39
2011-05-19 08:19:16 51°12.902 2°50.288 5.5 344 12.9 101790 40
2011-05-19 08:19:21 51°12.893 2°50.258 5.2 343 12.9 101790 40
2011-05-19 08:19:26 51°12.885 2°50.228 5.3 341 12.9 101790 40
2011-05-19 08:19:32 51°12.875 2°50.192 5.7 341 12.9 101790 40
2011-05-19 08:19:35 51°12.87 2°50.175 5.2 342 12.9 101790 40
2011-05-19 08:19:41 51°12.859 2°50.139 5 343 12.9 101790 40
2011-05-19 08:19:47 51°12.847 2°50.105 5.1 342 12.9 101790 40
2011-05-19 08:19:52 51°12.837 2°50.076 4.9 340 12.9 101790 40
2011-05-19 08:19:56 51°12.829 2°50.053 5.1 341 12.9 101790 39
2011-05-19 08:20:01 51°12.819 2°50.025 4.7 342 12.9 101790 39
2011-05-19 08:20:07 51°12.806 2°49.991 4.5 342 12.9 101790 39
2011-05-19 08:20:12 51°12.796 2°49.962 4.7 341 12.9 101790 39
2011-05-19 08:20:16 51°12.787 2°49.94 5.3 343 12.9 101790 40
2011-05-19 08:20:21 51°12.777 2°49.911 5.3 342 12.9 101790 40
2011-05-19 08:20:27 51°12.765 2°49.876 5.9 341 12.9 101790 40
2011-05-19 08:20:32 51°12.755 2°49.848 5.3 342 12.9 101790 40
2011-05-19 08:20:36 51°12.747 2°49.824 5.9 340 12.9 101790 40
2011-05-19 08:20:42 51°12.736 2°49.788 5.3 341 12.9 101790 40
2011-05-19 08:20:47 51°12.728 2°49.758 5.7 341 12.9 101790 38
2011-05-19 08:20:52 51°12.72 2°49.727 5.7 342 12.9 101790 38
2011-05-19 08:20:56 51°12.713 2°49.703 6 340 12.9 101790 40
2011-05-19 08:21:01 51°12.705 2°49.672 5.8 282 12.9 101790 40
2011-05-19 08:21:07 51°12.695 2°49.635 5.3 340 12.9 101790 40
2011-05-19 08:21:12 51°12.686 2°49.605 5.8 342 12.9 101790 40
2011-05-19 08:21:16 51°12.68 2°49.58 5.5 342 12.9 101790 37
2011-05-19 08:21:21 51°12.672 2°49.55 5.5 343 12.9 101790 37
2011-05-19 08:21:27 51°12.662 2°49.513 5.3 343 12.9 101790 40
2011-05-19 08:21:32 51°12.654 2°49.482 5.5 341 12.9 101790 40
2011-05-19 08:21:36 51°12.647 2°49.458 5.1 342 12.9 101790 38
2011-05-19 08:21:41 51°12.638 2°49.428 5.2 340 12.9 101790 38
2011-05-19 08:21:47 51°12.627 2°49.392 5.5 342 12.9 101790 38
2011-05-19 08:21:52 51°12.617 2°49.362 5.6 345 12.9 101790 38
2011-05-19 08:21:56 51°12.609 2°49.339 5.2 343 12.9 101790 40
2011-05-19 08:22:01 51°12.598 2°49.311 5.1 344 12.9 101790 40
2011-05-19 08:22:06 51°12.588 2°49.281 4.8 342 12.9 101790 40
2011-05-19 08:22:11 51°12.577 2°49.253 5.2 342 12.9 101790 40
2011-05-19 08:22:16 51°12.567 2°49.224 4.9 343 12.9 101790 40
2011-05-19 08:22:21 51°12.557 2°49.195 5 342 12.9 101790 40
2011-05-19 08:22:27 51°12.545 2°49.16 6 343 12.9 101790 40
2011-05-19 08:22:32 51°12.534 2°49.132 5.2 342 12.9 101790 40
2011-05-19 08:22:37 51°12.525 2°49.102 5.5 341 12.9 101790 39
2011-05-19 08:22:41 51°12.517 2°49.079 5.4 341 12.9 101790 39
2011-05-19 08:22:47 51°12.505 2°49.044 4.9 341 12.9 101790 40
2011-05-19 08:22:52 51°12.496 2°49.014 6.2 341 12.9 101790 40
2011-05-19 08:22:57 51°12.487 2°48.984 5.7 342 12.9 101790 38
2011-05-19 08:23:01 51°12.48 2°48.96 6 282 12.9 101790 38
2011-05-19 08:23:07 51°12.47 2°48.924 5.3 341 12.9 101790 40
2011-05-19 08:23:12 51°12.462 2°48.894 5.2 341 12.9 101790 40
2011-05-19 08:23:17 51°12.453 2°48.864 5.7 341 12.9 101790 40
2011-05-19 08:23:21 51°12.447 2°48.839 5.5 341 12.9 101790 40
2011-05-19 08:23:27 51°12.437 2°48.803 5.3 343 12.9 101790 39
2011-05-19 08:23:32 51°12.429 2°48.773 5.3 343 12.9 101790 39
2011-05-19 08:23:37 51°12.42 2°48.743 5.3 344 12.9 101790 40
2011-05-19 08:23:41 51°12.414 2°48.719 5 344 12.9 101790 40
2011-05-19 08:23:46 51°12.405 2°48.689 5.2 343 12.8 101790 39
2011-05-19 08:23:52 51°12.393 2°48.654 5.3 343 12.8 101790 39
2011-05-19 08:23:57 51°12.383 2°48.625 5.7 343 12.8 101790 37
2011-05-19 08:24:01 51°12.376 2°48.602 5.6 343 12.8 101790 37
2011-05-19 08:24:07 51°12.364 2°48.568 5.2 342 12.8 101790 38
2011-05-19 08:24:12 51°12.354 2°48.539 5.8 342 12.8 101790 38
2011-05-19 08:24:17 51°12.344 2°48.51 5.2 342 12.8 101790 40
2011-05-19 08:24:21 51°12.337 2°48.486 5.1 342 12.8 101790 40
2011-05-19 08:24:27 51°12.326 2°48.451 5.4 343 12.8 101790 39
2011-05-19 08:24:32 51°12.317 2°48.422 5.1 342 12.8 101790 39
2011-05-19 08:24:37 51°12.308 2°48.392 5.6 342 12.8 101790 40
2011-05-19 08:24:42 51°12.299 2°48.362 5.7 341 12.8 101790 40
2011-05-19 08:24:46 51°12.292 2°48.338 5.3 343 12.8 101790 39
2011-05-19 08:24:51 51°12.284 2°48.308 6 345 12.8 101790 39
2011-05-19 08:24:57 51°12.275 2°48.272 6.3 346 12.8 101790 40
2011-05-19 08:25:02 51°12.267 2°48.241 5.7 280 12.8 101790 40
2011-05-19 08:25:06 51°12.261 2°48.217 6.2 346 12.8 101790 38
2011-05-19 08:25:11 51°12.254 2°48.186 5.2 345 12.8 101790 38
2011-05-19 08:25:16 51°12.246 2°48.156 4.9 345 12.8 101790 39
2011-05-19 08:25:22 51°12.237 2°48.119 5.4 344 12.8 101790 39
2011-05-19 08:25:26 51°12.231 2°48.095 5 345 12.8 101790 39
2011-05-19 08:25:31 51°12.223 2°48.065 4.9 346 12.8 101790 39
2011-05-19 08:25:36 51°12.215 2°48.034 5.2 346 12.8 101790 40
2011-05-19 08:25:42 51°12.206 2°47.998 5.6 345 12.8 101790 40
2011-05-19 08:25:46 51°12.2 2°47.974 5.8 345 12.8 101790 38
2011-05-19 08:25:51 51°12.192 2°47.944 5.6 344 12.8 101790 38
2011-05-19 08:25:57 51°12.182 2°47.907 5.3 346 12.8 101790 40
2011-05-19 08:26:02 51°12.174 2°47.878 5.5 346 12.8 101790 40
2011-05-19 08:26:06 51°12.167 2°47.854 5.8 344 12.8 101790 38
2011-05-19 08:26:11 51°12.158 2°47.824 5.3 343 12.8 101790 38
2011-05-19 08:26:16 51°12.149 2°47.795 5.1 346 12.8 101790 39
2011-05-19 08:26:22 51°12.138 2°47.759 5.2 343 12.8 101790 39
2011-05-19 08:26:26 51°12.131 2°47.735 5.3 343 12.8 101790 40
2011-05-19 08:26:31 51°12.123 2°47.705 5.1 343 12.8 101790 40
2011-05-19 08:26:37 51°12.113 2°47.669 5 344 12.8 101790 38
2011-05-19 08:26:42 51°12.105 2°47.639 5.1 342 12.8 101790 38
2011-05-19 08:26:46 51°12.099 2°47.614 5.1 342 12.8 101790 38
2011-05-19 08:26:51 51°12.092 2°47.583 6.2 340 12.8 101790 38
2011-05-19 08:26:56 51°12.085 2°47.552 6.5 344 12.8 101790 39
2011-05-19 08:27:02 51°12.077 2°47.514 5.9 280 12.8 101790 39
2011-05-19 08:27:06 51°12.072 2°47.489 6.1 342 12.7 101790 38
2011-05-19 08:27:11 51°12.066 2°47.458 6.1 342 12.7 101790 38
2011-05-19 08:27:16 51°12.06 2°47.426 5.4 342 12.7 101790 40
2011-05-19 08:27:22 51°12.053 2°47.388 6.6 341 12.7 101790 40
2011-05-19 08:27:26 51°12.049 2°47.363 6.7 344 12.8 101790 40
2011-05-19 08:27:31 51°12.043 2°47.331 6.7 345 12.8 101790 40
2011-05-19 08:27:36 51°12.037 2°47.299 5.9 344 12.8 101790 39
2011-05-19 08:27:41 51°12.032 2°47.267 6.4 344 12.8 101790 39
2011-05-19 08:27:46 51°12.026 2°47.235 5.9 343 12.8 101790 38
2011-05-19 08:27:51 51°12.021 2°47.203 6.8 345 12.8 101790 38
2011-05-19 08:27:56 51°12.016 2°47.171 5.7 343 12.8 101790 40
2011-05-19 08:28:02 51°12.009 2°47.133 5.6 344 12.8 101790 40
2011-05-19 08:28:06 51°12.005 2°47.107 6 344 12.8 101790 40
2011-05-19 08:28:11 51°12 2°47.074 5.8 344 12.8 101790 40
2011-05-19 08:28:17 51°11.994 2°47.036 5.7 345 12.8 101790 38
2011-05-19 08:28:22 51°11.988 2°47.004 5.6 344 12.8 101790 38
2011-05-19 08:28:26 51°11.983 2°46.978 5.9 345 12.8 101790 39
2011-05-19 08:28:31 51°11.977 2°46.946 5.9 345 12.8 101790 39
2011-05-19 08:28:37 51°11.969 2°46.908 5.3 346 12.8 101790 38
2011-05-19 08:28:42 51°11.963 2°46.877 4.9 344 12.8 101790 38
2011-05-19 08:28:46 51°11.957 2°46.851 5.3 345 12.8 101790 38
2011-05-19 08:28:51 51°11.951 2°46.82 5.2 343 12.8 101790 38
2011-05-19 08:28:56 51°11.945 2°46.788 5.4 345 12.8 101790 38
2011-05-19 08:29:02 51°11.939 2°46.749 5.3 285 12.8 101790 38
2011-05-19 08:29:06 51°11.935 2°46.723 5 344 12.8 101790 40
2011-05-19 08:29:11 51°11.93 2°46.69 6.1 343 12.8 101790 40
2011-05-19 08:29:17 51°11.924 2°46.652 6 346 12.8 101790 38
2011-05-19 08:29:22 51°11.92 2°46.619 6.1 345 12.8 101790 38
2011-05-19 08:29:26 51°11.916 2°46.593 6.2 346 12.8 101790 38
2011-05-19 08:29:31 51°11.912 2°46.561 6.5 346 12.8 101790 38
2011-05-19 08:29:36 51°11.908 2°46.528 5.8 347 12.8 101790 40
2011-05-19 08:29:42 51°11.903 2°46.489 6 346 12.8 101790 40
2011-05-19 08:29:46 51°11.9 2°46.464 6.1 345 12.8 101790 40
2011-05-19 08:29:51 51°11.896 2°46.431 5.9 346 12.8 101790 40
2011-05-19 08:29:56 51°11.892 2°46.399 6.2 346 12.7 101790 39
2011-05-19 08:30:02 51°11.886 2°46.36 5.7 346 12.7 101790 39
2011-05-19 08:30:06 51°11.883 2°46.334 5.7 346 12.7 101790 39
2011-05-19 08:30:11 51°11.877 2°46.302 5.4 344 12.7 101790 39
2011-05-19 08:30:17 51°11.871 2°46.264 5.3 345 12.7 101790 39
2011-05-19 08:30:22 51°11.866 2°46.232 5.3 344 12.7 101790 39
2011-05-19 08:30:26 51°11.861 2°46.206 5 343 12.7 101790 38
2011-05-19 08:30:32 51°11.854 2°46.168 5.7 342 12.7 101790 38
2011-05-19 08:30:36 51°11.849 2°46.143 5.5 345 12.7 101790 38
2011-05-19 08:30:42 51°11.842 2°46.105 5.8 343 12.7 101790 38
2011-05-19 08:30:47 51°11.837 2°46.073 6 344 12.7 101790 39
2011-05-19 08:30:52 51°11.832 2°46.041 5.7 342 12.7 101790 39
2011-05-19 08:30:57 51°11.828 2°46.008 5.7 342 12.7 101790 39
2011-05-19 08:31:02 51°11.824 2°45.976 5.3 279 12.7 101790 39
2011-05-19 08:31:07 51°11.82 2°45.944 5.6 345 12.7 101790 38
2011-05-19 08:31:11 51°11.818 2°45.918 5.6 344 12.7 101790 38
2011-05-19 08:31:17 51°11.814 2°45.879 5.4 344 12.7 101790 39
2011-05-19 08:31:22 51°11.81 2°45.847 5.4 344 12.7 101790 39
2011-05-19 08:31:27 51°11.807 2°45.815 5.7 344 12.7 101800 39
2011-05-19 08:31:31 51°11.805 2°45.789 6.1 344 12.7 101800 39
2011-05-19 08:31:37 51°11.801 2°45.751 5.3 345 12.7 101790 39
2011-05-19 08:31:42 51°11.797 2°45.719 5.9 345 12.7 101790 39
2011-05-19 08:31:46 51°11.795 2°45.693 6.3 346 12.7 101790 40
2011-05-19 08:31:51 51°11.791 2°45.662 5.6 347 12.7 101790 40
2011-05-19 08:31:56 51°11.788 2°45.63 5.7 348 12.7 101790 38
2011-05-19 08:32:01 51°11.784 2°45.598 6.3 348 12.7 101790 38
2011-05-19 08:32:07 51°11.779 2°45.56 5.7 347 12.8 101790 38
2011-05-19 08:32:11 51°11.775 2°45.535 6.1 348 12.8 101790 38
2011-05-19 08:32:17 51°11.769 2°45.497 5.7 348 12.7 101790 38
2011-05-19 08:32:22 51°11.765 2°45.466 5.5 347 12.7 101790 38
2011-05-19 08:32:27 51°11.759 2°45.435 5.1 346 12.7 101790 38
2011-05-19 08:32:32 51°11.754 2°45.403 4.8 345 12.7 101790 38
2011-05-19 08:32:36 51°11.75 2°45.378 4.7 345 12.8 101790 39
2011-05-19 08:32:42 51°11.744 2°45.34 5.1 344 12.8 101790 39
2011-05-19 08:32:47 51°11.74 2°45.309 5.9 346 12.8 101790 38
2011-05-19 08:32:52 51°11.735 2°45.277 5.2 344 12.8 101790 38
2011-05-19 08:32:57 51°11.732 2°45.245 5.3 342 12.7 101800 39
2011-05-19 08:33:02 51°11.728 2°45.213 6.7 280 12.7 101800 39
2011-05-19 08:33:07 51°11.725 2°45.181 6 343 12.7 101790 38
2011-05-19 08:33:12 51°11.722 2°45.149 5.8 343 12.7 101790 38
2011-05-19 08:33:16 51°11.72 2°45.124 5.9 342 12.7 101790 39
2011-05-19 08:33:22 51°11.717 2°45.086 5.3 342 12.7 101790 39
2011-05-19 08:33:26 51°11.715 2°45.061 5.4 342 12.7 101790 39
2011-05-19 08:33:32 51°11.712 2°45.024 5.3 341 12.7 101790 39
2011-05-19 08:33:37 51°11.71 2°44.993 5 342 12.8 101790 39
2011-05-19 08:33:42 51°11.708 2°44.961 5.1 343 12.8 101790 39
2011-05-19 08:33:47 51°11.706 2°44.93 4.8 343 12.8 101790 38
2011-05-19 08:33:52 51°11.703 2°44.9 4.9 344 12.8 101790 38
2011-05-19 08:33:56 51°11.701 2°44.875 4.7 343 12.8 101800 39
2011-05-19 08:34:02 51°11.698 2°44.838 5.1 344 12.8 101800 39
2011-05-19 08:34:07 51°11.695 2°44.807 5.8 343 12.8 101800 38
2011-05-19 08:34:12 51°11.692 2°44.777 5.6 347 12.8 101800 38
2011-05-19 08:34:16 51°11.689 2°44.752 5.2 349 12.8 101800 38
2011-05-19 08:34:22 51°11.685 2°44.716 5.1 347 12.8 101800 38
2011-05-19 08:34:26 51°11.682 2°44.692 5.5 348 12.8 101800 40
2011-05-19 08:34:32 51°11.677 2°44.655 5.2 347 12.8 101800 40
2011-05-19 08:34:36 51°11.673 2°44.631 5.3 347 12.8 101800 37
2011-05-19 08:34:41 51°11.669 2°44.601 4.9 344 12.8 101800 37
2011-05-19 08:34:46 51°11.666 2°44.571 5.3 344 12.8 101790 38
2011-05-19 08:34:52 51°11.661 2°44.535 5.1 345 12.8 101790 38
2011-05-19 08:34:56 51°11.658 2°44.511 5.6 344 12.8 101800 38
2011-05-19 08:35:01 51°11.655 2°44.48 5.7 280 12.8 101800 38
2011-05-19 08:35:06 51°11.652 2°44.45 5.9 346 12.8 101790 38
2011-05-19 08:35:12 51°11.648 2°44.413 5.8 346 12.8 101790 38
2011-05-19 08:35:16 51°11.646 2°44.389 5.6 347 12.8 101800 39
2011-05-19 08:35:21 51°11.644 2°44.359 5.4 347 12.8 101800 39
2011-05-19 08:35:26 51°11.642 2°44.328 5.6 346 12.8 101800 38
2011-05-19 08:35:32 51°11.639 2°44.292 5.1 347 12.8 101800 38
2011-05-19 08:35:37 51°11.637 2°44.261 6 345 12.8 101800 39
2011-05-19 08:35:41 51°11.636 2°44.237 5.2 346 12.8 101800 39
2011-05-19 08:35:47 51°11.633 2°44.2 5.2 346 12.8 101790 39
2011-05-19 08:35:52 51°11.631 2°44.17 5.3 346 12.8 101790 39
2011-05-19 08:35:57 51°11.629 2°44.139 5.2 345 12.8 101800 38
2011-05-19 08:36:01 51°11.627 2°44.115 5.1 346 12.8 101800 38
2011-05-19 08:36:07 51°11.625 2°44.079 5.1 346 12.8 101800 40
2011-05-19 08:36:12 51°11.622 2°44.048 5.4 342 12.8 101800 40
2011-05-19 08:36:17 51°11.62 2°44.018 5.4 344 12.8 101800 38
2011-05-19 08:36:21 51°11.618 2°43.994 5.9 342 12.8 101800 38
2011-05-19 08:36:26 51°11.615 2°43.963 5.4 343 12.8 101800 39
2011-05-19 08:36:32 51°11.612 2°43.927 5.7 341 12.8 101800 39
2011-05-19 08:36:36 51°11.61 2°43.903 5.5 342 12.8 101800 38
2011-05-19 08:36:41 51°11.607 2°43.872 5.3 342 12.8 101800 38
2011-05-19 08:36:47 51°11.604 2°43.836 5.4 341 12.8 101800 40
2011-05-19 08:36:52 51°11.602 2°43.806 5.2 341 12.8 101800 40
2011-05-19 08:36:57 51°11.599 2°43.776 5.7 344 12.8 101800 39
2011-05-19 08:37:02 51°11.596 2°43.746 5.4 281 12.8 101800 39
2011-05-19 08:37:07 51°11.594 2°43.716 5.6 342 12.8 101800 38
2011-05-19 08:37:12 51°11.591 2°43.685 5.5 342 12.8 101800 38
2011-05-19 08:37:17 51°11.587 2°43.656 5 343 12.8 101800 38
2011-05-19 08:37:22 51°11.583 2°43.626 5.2 343 12.8 101800 38
2011-05-19 08:37:26 51°11.58 2°43.602 5 341 12.8 101800 38
2011-05-19 08:37:32 51°11.575 2°43.566 5.4 344 12.8 101800 38
2011-05-19 08:37:37 51°11.571 2°43.537 5.6 345 12.8 101800 38
2011-05-19 08:37:42 51°11.566 2°43.507 5.1 345 12.8 101800 38
2011-05-19 08:37:46 51°11.563 2°43.483 4.6 344 12.8 101800 40
2011-05-19 08:37:51 51°11.559 2°43.454 4.5 343 12.8 101800 40
2011-05-19 08:37:56 51°11.556 2°43.424 5.1 343 12.9 101800 40
2011-05-19 08:38:02 51°11.552 2°43.388 5.2 342 12.9 101800 40
2011-05-19 08:38:06 51°11.549 2°43.364 5.3 344 12.9 101800 40
2011-05-19 08:38:12 51°11.546 2°43.328 5.2 346 12.9 101800 40
2011-05-19 08:38:17 51°11.543 2°43.298 5.5 343 12.8 101800 40
2011-05-19 08:38:22 51°11.54 2°43.268 5.5 343 12.8 101800 40
2011-05-19 08:38:27 51°11.537 2°43.237 5.6 342 12.8 101800 38
2011-05-19 08:38:31 51°11.535 2°43.213 4.7 342 12.8 101800 38
2011-05-19 08:38:37 51°11.533 2°43.177 5.4 344 12.8 101800 40
2011-05-19 08:38:42 51°11.531 2°43.147 5.7 344 12.8 101800 40
2011-05-19 08:38:47 51°11.529 2°43.117 5.5 346 12.8 101800 39
2011-05-19 08:38:52 51°11.526 2°43.086 6 345 12.8 101800 39
2011-05-19 08:38:56 51°11.525 2°43.062 6.2 345 12.8 101800 38
2011-05-19 08:39:02 51°11.522 2°43.026 6 280 12.8 101800 38
2011-05-19 08:39:07 51°11.52 2°42.996 5.7 344 12.8 101800 38
2011-05-19 08:39:11 51°11.518 2°42.972 5.7 344 12.8 101800 38
2011-05-19 08:39:17 51°11.514 2°42.936 5.4 344 12.8 101800 39
2011-05-19 08:39:22 51°11.511 2°42.906 5.1 345 12.8 101800 39
2011-05-19 08:39:27 51°11.507 2°42.876 5.6 344 12.8 101800 39
2011-05-19 08:39:31 51°11.504 2°42.852 5 344 12.8 101800 39
2011-05-19 08:39:36 51°11.5 2°42.822 5.2 344 12.8 101800 40
2011-05-19 08:39:41 51°11.496 2°42.792 4.7 343 12.8 101800 40
2011-05-19 08:39:46 51°11.491 2°42.763 4.6 344 12.8 101800 38
2011-05-19 08:39:51 51°11.487 2°42.733 5.3 342 12.8 101800 38
2011-05-19 08:39:56 51°11.483 2°42.704 5.2 342 12.8 101800 38
2011-05-19 08:40:02 51°11.477 2°42.668 4.9 341 12.8 101800 38
2011-05-19 08:40:07 51°11.473 2°42.638 4.8 342 12.8 101800 38
2011-05-19 08:40:12 51°11.469 2°42.608 4.7 342 12.8 101800 38
2011-05-19 08:40:16 51°11.466 2°42.584 5.1 341 12.8 101800 38
2011-05-19 08:40:21 51°11.462 2°42.554 5.2 341 12.8 101800 38
2011-05-19 08:40:27 51°11.459 2°42.518 5.5 341 12.8 101800 39
2011-05-19 08:40:32 51°11.455 2°42.488 5.8 344 12.8 101800 39
2011-05-19 08:40:36 51°11.452 2°42.464 5.2 342 12.8 101800 40
2011-05-19 08:40:42 51°11.448 2°42.428 5.5 342 12.8 101800 40
2011-05-19 08:40:46 51°11.445 2°42.403 4.4 339 12.8 101800 40
2011-05-19 08:40:52 51°11.439 2°42.368 5.3 342 12.8 101800 40
2011-05-19 08:40:56 51°11.435 2°42.344 5.5 345 12.8 101800 40
2011-05-19 08:41:02 51°11.428 2°42.309 5.3 284 12.8 101800 40
2011-05-19 08:41:07 51°11.422 2°42.28 5.5 343 12.8 101800 39
2011-05-19 08:41:12 51°11.415 2°42.251 5.3 344 12.8 101800 39
2011-05-19 08:41:16 51°11.41 2°42.228 5 343 12.8 101800 40
2011-05-19 08:41:21 51°11.403 2°42.199 4.6 343 12.8 101800 40
2011-05-19 08:41:26 51°11.396 2°42.17 5 341 12.9 101800 39
2011-05-19 08:41:32 51°11.387 2°42.136 4.5 344 12.9 101800 39
2011-05-19 08:41:36 51°11.381 2°42.114 4.8 342 12.8 101800 38
2011-05-19 08:41:41 51°11.372 2°42.086 4.7 341 12.8 101800 38
2011-05-19 08:41:46 51°11.364 2°42.058 5 341 12.8 101800 40
2011-05-19 08:41:53 51°11.352 2°42.02 4.7 343 12.8 101800 40
2011-05-19 08:41:57 51°11.345 2°41.998 4.6 342 12.8 101800 39
2011-05-19 08:42:02 51°11.336 2°41.97 5.3 339 12.8 101800 39
2011-05-19 08:42:06 51°11.329 2°41.948 4.6 341 12.8 101800 38
2011-05-19 08:42:12 51°11.319 2°41.915 5.3 340 12.8 101800 38
2011-05-19 08:42:17 51°11.31 2°41.887 5 342 12.8 101800 40
2011-05-19 08:42:22 51°11.302 2°41.859 4.9 340 12.8 101800 40
2011-05-19 08:42:26 51°11.295 2°41.837 5 341 12.8 101800 39
2011-05-19 08:42:32 51°11.286 2°41.803 4.8 341 12.8 101800 39
2011-05-19 08:42:37 51°11.278 2°41.774 4.6 342 12.8 101800 38
2011-05-19 08:42:42 51°11.269 2°41.746 5.1 342 12.8 101800 38
2011-05-19 08:42:46 51°11.263 2°41.723 5.1 341 12.8 101800 39
2011-05-19 08:42:52 51°11.252 2°41.69 4.7 342 12.8 101800 39
2011-05-19 08:42:57 51°11.243 2°41.663 4.2 342 12.8 101800 39
2011-05-19 08:43:01 51°11.235 2°41.641 4 280 12.8 101800 39
2011-05-19 08:43:07 51°11.223 2°41.609 4.4 339 12.8 101800 39
2011-05-19 08:43:12 51°11.213 2°41.583 3.8 339 12.8 101800 39
2011-05-19 08:43:16 51°11.205 2°41.562 3.6 340 12.8 101800 38
2011-05-19 08:43:21 51°11.194 2°41.535 3.7 339 12.8 101800 38
2011-05-19 08:43:27 51°11.181 2°41.504 4.2 340 12.8 101800 40
2011-05-19 08:43:32 51°11.171 2°41.477 4.6 339 12.8 101800 40
2011-05-19 08:43:37 51°11.16 2°41.451 5.3 342 12.8 101800 38
2011-05-19 08:43:41 51°11.152 2°41.43 5.2 341 12.8 101800 38
2011-05-19 08:43:46 51°11.141 2°41.403 5 340 12.8 101810 38
2011-05-19 08:43:51 51°11.131 2°41.377 5 343 12.8 101810 38
2011-05-19 08:43:56 51°11.121 2°41.35 5.2 342 12.8 101800 38
2011-05-19 08:44:02 51°11.109 2°41.318 5.1 342 12.8 101800 38
2011-05-19 08:44:07 51°11.1 2°41.29 5.4 343 12.8 101800 39
2011-05-19 08:44:12 51°11.09 2°41.262 4.9 342 12.8 101800 39
2011-05-19 08:44:17 51°11.082 2°41.234 5.4 342 12.8 101800 38
2011-05-19 08:44:22 51°11.073 2°41.206 5.4 342 12.8 101800 38
2011-05-19 08:44:26 51°11.065 2°41.184 4.9 342 12.8 101800 40
2011-05-19 08:44:31 51°11.057 2°41.156 4.8 343 12.8 101800 40
2011-05-19 08:44:37 51°11.046 2°41.122 4.4 342 12.8 101800 40
2011-05-19 08:44:42 51°11.037 2°41.094 4.5 341 12.8 101800 40
2011-05-19 08:44:46 51°11.03 2°41.072 4.5 339 12.8 101800 38
2011-05-19 08:44:51 51°11.021 2°41.044 4.9 340 12.8 101800 38
2011-05-19 08:44:57 51°11.01 2°41.01 4.6 341 12.8 101800 40
2011-05-19 08:45:02 51°11.001 2°40.983 4.7 282 12.8 101800 40
2011-05-19 08:45:06 51°10.994 2°40.961 3.7 340 12.8 101800 39
2011-05-19 08:45:11 51°10.984 2°40.934 4.2 338 12.8 101800 39
2011-05-19 08:45:16 51°10.974 2°40.907 4.2 341 12.8 101800 38
2011-05-19 08:45:22 51°10.962 2°40.874 4.6 340 12.8 101800 38
2011-05-19 08:45:27 51°10.951 2°40.848 4.2 341 12.8 101800 39
2011-05-19 08:45:32 51°10.941 2°40.821 4.1 340 12.8 101800 39
2011-05-19 08:45:37 51°10.93 2°40.795 4.1 340 12.8 101810 39
2011-05-19 08:45:42 51°10.92 2°40.768 3.9 339 12.8 101810 39
2011-05-19 08:45:47 51°10.909 2°40.742 4.1 339 12.9 101810 39
2011-05-19 08:45:51 51°10.901 2°40.72 4.6 338 12.9 101810 39
2011-05-19 08:45:56 51°10.89 2°40.694 5 338 12.9 101800 39
2011-05-19 08:46:01 51°10.88 2°40.667 4.6 338 12.9 101800 39
2011-05-19 08:46:07 51°10.869 2°40.633 4.8 339 12.9 101800 39
2011-05-19 08:46:11 51°10.861 2°40.611 4.5 339 12.9 101800 39
2011-05-19 08:46:16 51°10.853 2°40.583 4.5 338 12.9 101800 40
2011-05-19 08:46:21 51°10.844 2°40.554 5.2 340 12.9 101800 40
2011-05-19 08:46:27 51°10.834 2°40.52 5.1 339 12.9 101800 39
2011-05-19 08:46:31 51°10.828 2°40.497 4.7 340 12.9 101800 39
2011-05-19 08:46:36 51°10.82 2°40.468 4.4 340 12.9 101800 40
2011-05-19 08:46:42 51°10.81 2°40.433 4.1 339 12.9 101800 40
2011-05-19 08:46:47 51°10.803 2°40.403 5 339 12.9 101800 40
2011-05-19 08:46:51 51°10.796 2°40.38 4.9 340 12.9 101800 40
2011-05-19 08:46:57 51°10.787 2°40.345 4.3 339 12.9 101800 39
2011-05-19 08:47:02 51°10.779 2°40.316 4.7 281 12.9 101800 39
2011-05-19 08:47:06 51°10.773 2°40.292 4.7 340 12.9 101800 40
2011-05-19 08:47:11 51°10.764 2°40.263 5.1 337 12.9 101800 40
2011-05-19 08:47:16 51°10.756 2°40.234 5.3 337 12.9 101810 39
2011-05-19 08:47:22 51°10.746 2°40.199 5.6 338 12.9 101810 39
2011-05-19 08:47:27 51°10.737 2°40.17 5.6 336 12.9 101800 40
2011-05-19 08:47:31 51°10.73 2°40.148 5 337 12.9 101800 40
2011-05-19 08:47:36 51°10.721 2°40.119 5.4 337 12.9 101800 40
2011-05-19 08:47:42 51°10.71 2°40.085 4.9 338 12.9 101800 40
2011-05-19 08:47:47 51°10.7 2°40.056 4.9 340 12.9 101800 39
2011-05-19 08:47:51 51°10.693 2°40.034 5.3 338 12.9 101800 39
2011-05-19 08:47:55 51°10.685 2°40.011 4.7 337 12.9 101800 39
2011-05-19 08:48:01 51°10.673 2°39.977 4.6 338 12.9 101800 39
2011-05-19 08:48:07 51°10.662 2°39.943 4.9 337 12.9 101810 39
2011-05-19 08:48:11 51°10.655 2°39.92 4.4 337 12.9 101810 39
2011-05-19 08:48:16 51°10.646 2°39.891 4.7 339 12.9 101800 40
2011-05-19 08:48:21 51°10.637 2°39.863 5.1 338 12.9 101800 40
2011-05-19 08:48:27 51°10.626 2°39.828 5.1 335 12.9 101800 40
2011-05-19 08:48:31 51°10.619 2°39.805 4.3 337 12.9 101800 40
2011-05-19 08:48:36 51°10.61 2°39.776 4.8 336 12.9 101800 40
2011-05-19 08:48:42 51°10.6 2°39.74 4.8 336 12.9 101800 40
2011-05-19 08:48:47 51°10.592 2°39.711 4.4 338 12.9 101800 40
2011-05-19 08:48:51 51°10.585 2°39.687 4 337 12.9 101800 40
2011-05-19 08:48:56 51°10.577 2°39.657 4 337 12.9 101800 39
2011-05-19 08:49:01 51°10.569 2°39.628 4.5 335 12.9 101800 39
2011-05-19 08:49:06 51°10.562 2°39.598 4.9 336 12.9 101810 39
2011-05-19 08:49:11 51°10.553 2°39.569 4.6 336 12.9 101810 39
2011-05-19 08:49:16 51°10.545 2°39.539 4.8 335 12.9 101800 40
2011-05-19 08:49:22 51°10.535 2°39.504 4.7 334 12.9 101800 40
2011-05-19 08:49:27 51°10.527 2°39.474 4.3 335 12.9 101800 40
2011-05-19 08:49:31 51°10.52 2°39.451 4.5 335 12.9 101800 40
2011-05-19 08:49:36 51°10.511 2°39.422 4.6 335 12.9 101800 40
2011-05-19 08:49:42 51°10.501 2°39.387 4.1 335 12.9 101800 40
2011-05-19 08:49:47 51°10.491 2°39.358 4.2 339 12.9 101800 38
2011-05-19 08:49:52 51°10.482 2°39.33 4.2 339 12.9 101800 38
2011-05-19 08:49:56 51°10.474 2°39.306 4 337 12.9 101800 40
2011-05-19 08:50:02 51°10.463 2°39.273 4.3 335 12.9 101800 40
2011-05-19 08:50:07 51°10.453 2°39.244 4.1 335 12.9 101800 39
2011-05-19 08:50:12 51°10.443 2°39.216 4 336 12.9 101800 39
2011-05-19 08:50:16 51°10.436 2°39.193 4.1 337 12.9 101800 40
2011-05-19 08:50:22 51°10.425 2°39.158 4.1 336 12.9 101800 40
2011-05-19 08:50:27 51°10.416 2°39.129 4.1 335 12.9 101800 39
2011-05-19 08:50:32 51°10.407 2°39.1 3.5 337 12.9 101800 39
2011-05-19 08:50:36 51°10.4 2°39.077 4.3 336 12.9 101800 38
2011-05-19 08:50:42 51°10.39 2°39.041 4 337 12.9 101800 38
2011-05-19 08:50:47 51°10.381 2°39.012 4.5 336 12.9 101800 38
2011-05-19 08:50:52 51°10.373 2°38.982 4.3 338 12.9 101800 38
2011-05-19 08:50:56 51°10.367 2°38.958 4 336 12.9 101800 39
2011-05-19 08:51:02 51°10.357 2°38.923 4.6 337 12.9 101800 39
2011-05-19 08:51:07 51°10.349 2°38.893 4.6 338 12.9 101800 40
2011-05-19 08:51:12 51°10.341 2°38.864 4.6 336 12.9 101800 40
2011-05-19 08:51:16 51°10.334 2°38.841 4.5 338 12.9 101810 40
2011-05-19 08:51:22 51°10.324 2°38.805 5 337 12.9 101810 40
2011-05-19 08:51:26 51°10.317 2°38.782 4.4 339 12.9 101800 40
2011-05-19 08:51:31 51°10.308 2°38.753 4 336 12.9 101800 40
2011-05-19 08:51:36 51°10.299 2°38.724 4.8 336 12.9 101800 39
2011-05-19 08:51:42 51°10.288 2°38.69 4.2 336 12.9 101800 39
2011-05-19 08:51:46 51°10.28 2°38.667 4.5 339 12.9 101800 40
2011-05-19 08:51:52 51°10.268 2°38.633 4.5 337 12.9 101800 40
2011-05-19 08:51:56 51°10.26 2°38.611 4.8 337 12.9 101800 40
2011-05-19 08:52:02 51°10.249 2°38.577 5.1 338 12.9 101800 40
2011-05-19 08:52:07 51°10.239 2°38.549 4.4 338 12.9 101800 40
2011-05-19 08:52:12 51°10.229 2°38.52 4.5 337 12.9 101800 40
2011-05-19 08:52:16 51°10.222 2°38.497 4.9 335 12.9 101800 39
2011-05-19 08:52:21 51°10.212 2°38.469 4.9 337 12.9 101800 39
2011-05-19 08:52:26 51°10.203 2°38.44 5 336 12.9 101800 39
2011-05-19 08:52:32 51°10.192 2°38.405 5.2 338 12.9 101800 39
2011-05-19 08:52:36 51°10.185 2°38.382 5.2 339 12.9 101810 40
2011-05-19 08:52:41 51°10.176 2°38.353 4.7 339 12.9 101810 40
2011-05-19 08:52:47 51°10.165 2°38.318 5.3 339 12.9 101800 39
2011-05-19 08:52:52 51°10.157 2°38.289 5.2 336 12.9 101800 39
2011-05-19 08:52:56 51°10.15 2°38.265 5.1 336 12.9 101800 39
2011-05-19 08:53:01 51°10.142 2°38.235 5.3 336 12.9 101800 39
2011-05-19 08:53:07 51°10.132 2°38.199 5.2 338 12.9 101810 38
2011-05-19 08:53:12 51°10.124 2°38.17 5.8 339 12.9 101810 38
2011-05-19 08:53:16 51°10.118 2°38.146 4.9 338 12.9 101810 37
2011-05-19 08:53:20 51°10.111 2°38.122 4.8 339 12.9 101810 37
2011-05-19 08:53:26 51°10.101 2°38.087 4.9 337 12.9 101810 39
2011-05-19 08:53:31 51°10.093 2°38.057 4.4 339 12.9 101810 39
2011-05-19 08:53:36 51°10.084 2°38.028 4.3 339 12.9 101810 39
2011-05-19 08:53:42 51°10.074 2°37.992 4.5 339 12.9 101810 39
2011-05-19 08:53:47 51°10.065 2°37.963 4.1 337 12.9 101810 40
2011-05-19 08:53:52 51°10.055 2°37.934 4.5 339 12.9 101810 40
2011-05-19 08:53:57 51°10.046 2°37.905 4.1 339 12.9 101810 38
2011-05-19 08:54:02 51°10.037 2°37.877 4.6 338 12.9 101810 38
2011-05-19 08:54:06 51°10.029 2°37.854 4.4 339 12.9 101810 40
2011-05-19 08:54:12 51°10.018 2°37.819 4.6 338 12.9 101810 40
2011-05-19 08:54:17 51°10.008 2°37.791 5 339 12.9 101810 40
2011-05-19 08:54:22 51°9.998 2°37.762 4.3 339 12.9 101810 40
2011-05-19 08:54:26 51°9.991 2°37.739 4.4 338 12.9 101810 40
2011-05-19 08:54:32 51°9.98 2°37.704 5.4 339 12.9 101810 40
2011-05-19 08:54:37 51°9.97 2°37.675 5 339 12.9 101810 40
2011-05-19 08:54:41 51°9.963 2°37.652 5 339 12.9 101810 40
2011-05-19 08:54:47 51°9.952 2°37.617 4.9 339 12.9 101810 40
2011-05-19 08:54:52 51°9.943 2°37.587 4.8 339 12.9 101810 40
2011-05-19 08:54:57 51°9.934 2°37.558 4.5 338 12.9 101810 40
2011-05-19 08:55:01 51°9.928 2°37.534 4.6 338 12.9 101810 40
2011-05-19 08:55:06 51°9.919 2°37.504 4.7 339 12.9 101810 38
2011-05-19 08:55:12 51°9.91 2°37.468 4.9 342 12.9 101810 38
2011-05-19 08:55:17 51°9.901 2°37.439 5.2 339 12.9 101810 40
2011-05-19 08:55:21 51°9.895 2°37.415 4.8 342 12.9 101810 40
2011-05-19 08:55:26 51°9.887 2°37.385 4.3 341 12.9 101810 39
2011-05-19 08:55:32 51°9.877 2°37.349 4.4 341 12.9 101810 39
2011-05-19 08:55:37 51°9.869 2°37.319 4.2 340 12.9 101810 38
2011-05-19 08:55:41 51°9.862 2°37.295 4.4 340 12.9 101810 38
2011-05-19 08:55:46 51°9.854 2°37.265 4.4 340 12.9 101810 39
2011-05-19 08:55:52 51°9.844 2°37.23 5.1 340 12.9 101810 39
2011-05-19 08:55:57 51°9.835 2°37.2 4.9 339 12.9 101810 38
2011-05-19 08:56:01 51°9.828 2°37.177 4.8 338 12.9 101810 38
2011-05-19 08:56:06 51°9.819 2°37.148 5.3 338 12.9 101810 38
2011-05-19 08:56:11 51°9.809 2°37.119 5.3 338 12.9 101810 38
2011-05-19 08:56:18 51°9.796 2°37.079 5.4 339 12.9 101810 40
2011-05-19 08:56:21 51°9.79 2°37.061 5.1 339 12.9 101810 40
2011-05-19 08:56:25 51°9.782 2°37.038 4.5 338 12.9 101810 39
2011-05-19 08:56:31 51°9.771 2°37.004 4.3 339 12.9 101810 39
2011-05-19 08:56:36 51°9.761 2°36.976 4.5 339 12.9 101810 40
2011-05-19 08:56:41 51°9.751 2°36.947 4.8 340 12.9 101810 40
2011-05-19 08:56:46 51°9.741 2°36.918 4.6 340 12.9 101810 40
2011-05-19 08:56:51 51°9.732 2°36.89 4.5 340 12.9 101810 40
2011-05-19 08:56:56 51°9.723 2°36.862 4.2 339 12.9 101810 40
2011-05-19 08:57:01 51°9.714 2°36.835 3.7 340 12.9 101810 40
2011-05-19 08:57:05 51°9.708 2°36.814 3.3 339 12.9 101810 40
2011-05-19 08:57:11 51°9.699 2°36.786 2.6 342 12.9 101810 40
2011-05-19 08:57:16 51°9.692 2°36.763 2.9 344 12.9 101820 38
2011-05-19 08:57:22 51°9.684 2°36.737 2.4 347 12.9 101820 38
2011-05-19 08:57:26 51°9.68 2°36.721 2.1 347 12.9 101820 39
2011-05-19 08:57:31 51°9.674 2°36.701 1.6 348 12.9 101820 39
2011-05-19 08:57:37 51°9.668 2°36.679 1.5 348 12.9 101820 40
2011-05-19 08:57:41 51°9.663 2°36.664 1.3 351 12.9 101820 40
2011-05-19 08:57:45 51°9.66 2°36.65 0.6 354 12.9 101820 40
2011-05-19 08:57:51 51°9.654 2°36.63 0.5 356 12.9 101820 40
2011-05-19 08:57:57 51°9.649 2°36.611 0.3 356 12.9 101820 39
2011-05-19 08:58:01 51°9.646 2°36.599 0.1 357 12.9 101820 39
2011-05-19 08:58:05 51°9.642 2°36.588 0.1 358 12.9 101820 38
2011-05-19 08:58:11 51°9.637 2°36.572 -999 4 12.9 101820 38
2011-05-19 08:58:16 51°9.633 2°36.559 -999 4 12.9 101820 39
2011-05-19 08:58:22 51°9.627 2°36.545 -999 19 12.9 101820 39
2011-05-19 08:58:27 51°9.623 2°36.534 -999 19 12.9 101820 39
2011-05-19 08:58:32 51°9.618 2°36.524 -999 22 12.9 101820 39
2011-05-19 08:58:37 51°9.614 2°36.514 -999 22 12.9 101820 37
2011-05-19 08:58:42 51°9.609 2°36.504 -999 22 12.9 101820 37
2011-05-19 08:58:46 51°9.605 2°36.498 -999 24 12.9 101820 39
2011-05-19 08:58:52 51°9.599 2°36.488 -999 25 12.9 101820 39
2011-05-19 08:58:57 51°9.594 2°36.48 -999 25 12.9 101820 39
2011-05-19 08:59:02 51°9.589 2°36.474 -999 25 12.9 101820 39
2011-05-19 08:59:06 51°9.585 2°36.468 -999 31 12.9 101820 39
2011-05-19 08:59:12 51°9.579 2°36.461 -999 31 12.9 101820 39
2011-05-19 08:59:17 51°9.574 2°36.456 -999 21 12.9 101820 39
2011-05-19 08:59:22 51°9.569 2°36.45 -999 58 12.9 101820 39
2011-05-19 08:59:26 51°9.565 2°36.447 -999 25 12.9 101820 39
2011-05-19 08:59:32 51°9.56 2°36.441 -999 54 12.9 101820 39
2011-05-19 08:59:37 51°9.555 2°36.437 -999 24 13 101820 39
2011-05-19 08:59:42 51°9.552 2°36.432 -999 55 13 101820 39
2011-05-19 08:59:46 51°9.549 2°36.43 -999 26 13 101820 39
2011-05-19 08:59:52 51°9.545 2°36.425 -999 55 13 101820 39
2011-05-19 08:59:57 51°9.542 2°36.422 -999 24 13 101820 39
2011-05-19 09:00:02 51°9.54 2°36.418 0.1 82 13 101820 39
2011-05-19 09:00:06 51°9.538 2°36.415 0.1 21 13 101820 39
2011-05-19 09:00:12 51°9.536 2°36.411 0.1 59 13 101820 39
2011-05-19 09:00:17 51°9.535 2°36.408 1.3 20 13 101820 39
2011-05-19 09:00:22 51°9.534 2°36.405 0.8 55 13 101820 39
2011-05-19 09:00:26 51°9.533 2°36.402 2.1 23 13 101820 39
2011-05-19 09:00:31 51°9.533 2°36.398 1.8 57 13 101820 39
2011-05-19 09:00:37 51°9.532 2°36.394 1.3 27 13 101820 40
2011-05-19 09:00:42 51°9.531 2°36.391 0.8 57 13 101820 40
2011-05-19 09:00:46 51°9.531 2°36.388 0.3 22 13 101820 38
2011-05-19 09:00:52 51°9.53 2°36.383 0.1 54 13 101820 38
2011-05-19 09:00:56 51°9.53 2°36.38 0.1 24 13 101820 40
2011-05-19 09:01:02 51°9.529 2°36.376 -999 78 13 101820 40
2011-05-19 09:01:07 51°9.529 2°36.373 -999 24 13 101820 39
2011-05-19 09:01:12 51°9.528 2°36.369 -999 54 13 101820 39
2011-05-19 09:01:17 51°9.527 2°36.366 -999 24 13 101820 38
2011-05-19 09:01:22 51°9.527 2°36.362 -999 54 13 101820 38
2011-05-19 09:01:26 51°9.526 2°36.359 -999 24 13 101820 39
2011-05-19 09:01:31 51°9.525 2°36.356 -999 54 13 101820 39
2011-05-19 09:01:36 51°9.525 2°36.353 1.2 24 13 101820 39
2011-05-19 09:01:41 51°9.524 2°36.349 1.4 52 13 101820 39
2011-05-19 09:01:46 51°9.523 2°36.346 0.6 23 13 101820 39
2011-05-19 09:01:51 51°9.523 2°36.343 0.8 54 13 101820 39
2011-05-19 09:01:56 51°9.522 2°36.34 1.5 23 13 101820 40
2011-05-19 09:02:01 51°9.521 2°36.336 0.2 78 13 101820 40
2011-05-19 09:02:06 51°9.521 2°36.333 0.1 24 13 101820 40
2011-05-19 09:02:11 51°9.52 2°36.33 -999 54 13 101820 40
2011-05-19 09:02:16 51°9.519 2°36.326 -999 24 13 101820 38
2011-05-19 09:02:21 51°9.518 2°36.323 -999 54 13 101820 38
2011-05-19 09:02:26 51°9.517 2°36.32 -999 24 13 101820 39
2011-05-19 09:02:31 51°9.516 2°36.317 -999 54 13 101820 39
2011-05-19 09:02:36 51°9.516 2°36.314 -999 24 13 101820 39
2011-05-19 09:02:41 51°9.515 2°36.31 -999 54 13 101820 39
2011-05-19 09:02:46 51°9.514 2°36.307 -999 24 13 101820 39
2011-05-19 09:02:50 51°9.513 2°36.305 -999 54 13 101820 39
2011-05-19 09:02:56 51°9.512 2°36.301 -999 24 13 101820 39
2011-05-19 09:03:01 51°9.511 2°36.298 -999 54 13 101820 39
2011-05-19 09:03:06 51°9.51 2°36.295 -999 24 13 101820 39
2011-05-19 09:03:11 51°9.509 2°36.291 -999 54 13 101820 39
2011-05-19 09:03:16 51°9.509 2°36.288 -999 24 13 101820 39
2011-05-19 09:03:22 51°9.507 2°36.284 -999 54 13 101820 39
2011-05-19 09:03:26 51°9.507 2°36.282 -999 24 13 101820 39
2011-05-19 09:03:31 51°9.506 2°36.279 -999 54 13 101820 39
2011-05-19 09:03:36 51°9.505 2°36.275 -999 24 12.9 101820 39
2011-05-19 09:03:41 51°9.504 2°36.272 -999 54 12.9 101820 39
2011-05-19 09:03:46 51°9.503 2°36.269 -999 24 12.9 101820 39
2011-05-19 09:03:51 51°9.502 2°36.266 -999 54 12.9 101820 39
2011-05-19 09:03:56 51°9.501 2°36.263 -999 24 12.9 101820 37
2011-05-19 09:04:01 51°9.5 2°36.26 -999 78 12.9 101820 37
2011-05-19 09:04:06 51°9.499 2°36.256 -999 24 13 101820 39
2011-05-19 09:04:11 51°9.498 2°36.253 -999 54 13 101820 39
2011-05-19 09:04:16 51°9.497 2°36.25 -999 24 13 101820 39
2011-05-19 09:04:21 51°9.496 2°36.246 -999 54 13 101820 39
2011-05-19 09:04:26 51°9.495 2°36.243 -999 24 13 101820 39
2011-05-19 09:04:31 51°9.494 2°36.24 -999 54 13 101820 39
2011-05-19 09:04:36 51°9.493 2°36.237 -999 24 13 101820 39
2011-05-19 09:04:41 51°9.492 2°36.233 -999 54 13 101820 39
2011-05-19 09:04:46 51°9.491 2°36.23 -999 24 13 101830 39
2011-05-19 09:04:51 51°9.49 2°36.227 -999 54 13 101830 39
2011-05-19 09:04:56 51°9.489 2°36.223 -999 24 13 101820 39
2011-05-19 09:05:02 51°9.488 2°36.22 -999 78 13 101820 39
2011-05-19 09:05:06 51°9.487 2°36.217 -999 24 13 101820 39
2011-05-19 09:05:11 51°9.486 2°36.214 -999 54 13 101820 39
2011-05-19 09:05:17 51°9.485 2°36.21 -999 24 13 101820 39
2011-05-19 09:05:22 51°9.483 2°36.207 -999 54 13 101820 39
2011-05-19 09:05:26 51°9.483 2°36.204 -999 24 13 101820 39
2011-05-19 09:05:30 51°9.482 2°36.201 -999 54 13 101820 39
2011-05-19 09:05:36 51°9.481 2°36.197 -999 24 13 101820 39
2011-05-19 09:05:42 51°9.48 2°36.193 -999 54 13 101820 39
2011-05-19 09:05:46 51°9.479 2°36.191 -999 24 13 101820 39
2011-05-19 09:05:51 51°9.478 2°36.187 -999 54 13 101820 39
2011-05-19 09:05:56 51°9.477 2°36.184 -999 24 13 101820 39
2011-05-19 09:06:01 51°9.476 2°36.181 -999 78 13 101820 39
2011-05-19 09:06:06 51°9.474 2°36.177 -999 24 13 101820 39
2011-05-19 09:06:11 51°9.473 2°36.175 -999 54 13 101820 39
2011-05-19 09:06:16 51°9.471 2°36.173 -999 24 13 101820 39
2011-05-19 09:06:21 51°9.47 2°36.17 -999 54 13 101820 39
2011-05-19 09:06:26 51°9.469 2°36.166 -999 24 13 101820 39
2011-05-19 09:06:31 51°9.468 2°36.163 -999 54 13 101820 39
2011-05-19 09:06:36 51°9.467 2°36.16 -999 24 13 101820 38
2011-05-19 09:06:41 51°9.466 2°36.156 -999 54 13 101820 38
2011-05-19 09:06:46 51°9.465 2°36.153 -999 24 13 101820 39
2011-05-19 09:06:51 51°9.464 2°36.15 -999 54 13 101820 39
2011-05-19 09:06:56 51°9.462 2°36.147 -999 24 13 101820 39
2011-05-19 09:07:01 51°9.461 2°36.143 -999 78 13 101820 39
2011-05-19 09:07:06 51°9.46 2°36.14 -999 24 13 101830 39
2011-05-19 09:07:10 51°9.459 2°36.138 -999 54 13 101830 39
2011-05-19 09:07:16 51°9.458 2°36.134 -999 24 13 101820 39
2011-05-19 09:07:21 51°9.457 2°36.13 -999 54 13 101820 39
2011-05-19 09:07:26 51°9.456 2°36.127 -999 24 13 101830 39
2011-05-19 09:07:31 51°9.454 2°36.124 -999 54 13 101830 39
2011-05-19 09:07:36 51°9.453 2°36.121 -999 24 13 101820 39
2011-05-19 09:07:42 51°9.452 2°36.117 -999 54 13 101820 39
2011-05-19 09:07:46 51°9.451 2°36.114 -999 24 13 101830 39
2011-05-19 09:07:50 51°9.45 2°36.112 -999 54 13 101830 39
2011-05-19 09:07:56 51°9.448 2°36.108 -999 24 13 101820 39
2011-05-19 09:08:02 51°9.447 2°36.104 -999 78 13 101820 39
2011-05-19 09:08:06 51°9.446 2°36.102 -999 24 13 101820 39
2011-05-19 09:08:11 51°9.445 2°36.098 -999 54 13 101820 39
2011-05-19 09:08:16 51°9.444 2°36.095 -999 24 13 101820 39
2011-05-19 09:08:21 51°9.442 2°36.092 -999 54 13 101820 39
2011-05-19 09:08:26 51°9.441 2°36.089 -999 24 13 101820 39
2011-05-19 09:08:31 51°9.44 2°36.086 -999 54 13 101820 39
2011-05-19 09:08:36 51°9.438 2°36.082 -999 24 13 101830 39
2011-05-19 09:08:41 51°9.437 2°36.08 -999 54 13 101830 39
2011-05-19 09:08:46 51°9.436 2°36.076 -999 24 13 101830 39
2011-05-19 09:08:51 51°9.435 2°36.073 -999 54 13 101830 39
2011-05-19 09:08:56 51°9.433 2°36.07 -999 24 13 101830 39
2011-05-19 09:09:01 51°9.432 2°36.067 -999 78 13 101830 39
2011-05-19 09:09:06 51°9.431 2°36.064 -999 24 13 101830 39
2011-05-19 09:09:11 51°9.429 2°36.061 -999 54 13 101830 39
2011-05-19 09:09:16 51°9.428 2°36.057 -999 24 13 101830 38
2011-05-19 09:09:22 51°9.427 2°36.054 -999 54 13 101830 38
2011-05-19 09:09:26 51°9.426 2°36.051 -999 24 13 101820 39
2011-05-19 09:09:31 51°9.424 2°36.048 -999 54 13 101820 39
2011-05-19 09:09:37 51°9.423 2°36.044 -999 24 13 101830 39
2011-05-19 09:09:42 51°9.422 2°36.04 -999 54 13 101830 39
2011-05-19 09:09:46 51°9.421 2°36.038 -999 24 13 101820 39
2011-05-19 09:09:50 51°9.42 2°36.035 -999 54 13 101820 39
2011-05-19 09:09:56 51°9.418 2°36.031 -999 24 13.1 101830 39
2011-05-19 09:10:02 51°9.417 2°36.027 -999 78 13.1 101830 39
2011-05-19 09:10:06 51°9.416 2°36.025 -999 24 13.1 101830 39
2011-05-19 09:10:11 51°9.414 2°36.022 -999 54 13.1 101830 39
2011-05-19 09:10:16 51°9.413 2°36.018 -999 24 13.1 101830 39
2011-05-19 09:10:21 51°9.412 2°36.015 -999 54 13.1 101830 39
2011-05-19 09:10:26 51°9.41 2°36.012 -999 24 13 101830 39
2011-05-19 09:10:30 51°9.409 2°36.009 -999 54 13 101830 39
2011-05-19 09:10:36 51°9.408 2°36.005 -999 24 13 101820 39
2011-05-19 09:10:41 51°9.407 2°36.002 -999 54 13 101820 39
2011-05-19 09:10:46 51°9.405 2°35.998 -999 24 13 101830 39
2011-05-19 09:10:51 51°9.404 2°35.995 -999 54 13 101830 39
2011-05-19 09:10:56 51°9.402 2°35.993 -999 24 13 101820 39
2011-05-19 09:11:01 51°9.4 2°35.99 -999 78 13 101820 39
2011-05-19 09:11:06 51°9.399 2°35.987 -999 24 13 101830 39
2011-05-19 09:11:11 51°9.397 2°35.984 -999 54 13 101830 39
2011-05-19 09:11:16 51°9.396 2°35.98 -999 24 13 101820 39
2011-05-19 09:11:21 51°9.395 2°35.976 -999 54 13 101820 39
2011-05-19 09:11:26 51°9.393 2°35.973 -999 24 13 101820 39
2011-05-19 09:11:31 51°9.392 2°35.969 -999 54 13 101820 39
2011-05-19 09:11:36 51°9.391 2°35.966 -999 24 13 101820 39
2011-05-19 09:11:42 51°9.389 2°35.962 -999 54 13 101820 39
2011-05-19 09:11:46 51°9.388 2°35.959 -999 24 13 101830 39
2011-05-19 09:11:51 51°9.387 2°35.955 -999 54 13 101830 39
2011-05-19 09:11:56 51°9.386 2°35.952 -999 24 13 101830 38
2011-05-19 09:12:02 51°9.384 2°35.948 -999 78 13 101830 38
2011-05-19 09:12:06 51°9.383 2°35.945 -999 24 13 101830 39
2011-05-19 09:12:10 51°9.382 2°35.943 -999 54 13 101830 39
2011-05-19 09:12:16 51°9.38 2°35.939 -999 24 13 101830 39
2011-05-19 09:12:22 51°9.379 2°35.935 -999 54 13 101830 39
2011-05-19 09:12:26 51°9.378 2°35.932 -999 24 13.1 101830 39
2011-05-19 09:12:31 51°9.376 2°35.929 -999 54 13.1 101830 39
2011-05-19 09:12:36 51°9.375 2°35.925 -999 24 13.1 101830 39
2011-05-19 09:12:41 51°9.373 2°35.922 -999 54 13.1 101830 39
2011-05-19 09:12:46 51°9.372 2°35.919 -999 24 13.1 101830 39
2011-05-19 09:12:50 51°9.371 2°35.916 -999 54 13.1 101830 39
2011-05-19 09:12:56 51°9.37 2°35.912 -999 24 13.1 101830 39
2011-05-19 09:13:01 51°9.368 2°35.909 -999 78 13.1 101830 39
2011-05-19 09:13:06 51°9.367 2°35.905 -999 24 13.1 101830 39
2011-05-19 09:13:11 51°9.366 2°35.902 -999 54 13.1 101830 39
2011-05-19 09:13:16 51°9.364 2°35.899 -999 24 13.1 101830 39
2011-05-19 09:13:21 51°9.363 2°35.896 -999 54 13.1 101830 39
2011-05-19 09:13:26 51°9.361 2°35.893 -999 24 13.1 101830 39
2011-05-19 09:13:31 51°9.36 2°35.889 -999 54 13.1 101830 39
2011-05-19 09:13:36 51°9.359 2°35.886 -999 24 13.1 101830 39
2011-05-19 09:13:41 51°9.357 2°35.883 -999 54 13.1 101830 39
2011-05-19 09:13:46 51°9.356 2°35.88 -999 24 13.1 101820 39
2011-05-19 09:13:51 51°9.354 2°35.876 -999 54 13.1 101820 39
2011-05-19 09:13:56 51°9.353 2°35.873 -999 24 13.1 101830 39
2011-05-19 09:14:02 51°9.351 2°35.869 -999 78 13.1 101830 39
2011-05-19 09:14:06 51°9.35 2°35.867 -999 24 13.1 101830 39
2011-05-19 09:14:11 51°9.349 2°35.863 -999 54 13.1 101830 39